Torna al catalogo

STARLINK-34789

AttivoComunicazioniVLEO
NORAD 65022·PAYLOAD·🇺🇸 United States

Lanciato Jul 30, 2025 da Cape Canaveral Space Force Station

Loading…

Prossimi Passaggi (prossime 24 ore)

TLE

AggiornatoSource: CelesTrak SupGP

Epoca: Sep 15, 2026, 03:09 UTC

1 65022C 25161H   26258.13173611  .00044243  00000+0  13073-2 0  2586
2 65022  53.1577 132.6696 0001251  89.2072  24.7493 15.34365325    12

Traccia STARLINK-34789 in tempo reale con AllMySat

Download on the App Store